Regional Weather Roundup
Issued by NWS

Home | Current Version | Previous Version | Graphics & Text | Print | Product List | Glossary On
Versions: 1 2 3 4 5 6 7 8 9 10 11 12 13 14 15 16 17 18 19 20 21 22 23 24 25 26 27 28 29 30 31 32 33 34 35 36 37 38 39 40 41 42 43 44 45 46 47 48 49 50
000
ASUS43 KDMX 240903
RWRIA

WEATHER ROUNDUP FOR IOWA
NATIONAL WEATHER SERVICE DES MOINES IA
400 AM CDT SUN JUL 24 2016

NOTE: "FAIR" INDICATES FEW OR NO CLOUDS BELOW 12,000 FEET WITH NO
SIGNIFICANT WEATHER AND/OR OBSTRUCTIONS TO VISIBILITY.

* - THESE STATIONS ARE NOT NWS STATIONS...THUS NOT UNDER NWS
QUALITY CONTROL.  THEY ALSO DO NOT REPORT WEATHER SUCH
AS PRECIPITATION OR FOG.

IAZ001>003-012>014-020>022-031>034-043>046-241000-
   NORTHWEST IOWA

CITY           SKY/WX    TMP DP  RH WIND       PRES   REMARKS
CARROLL *      PTCLDY    77  75  94 SW7       29.82S
CHEROKEE *     PTCLDY    77  75  93 N12       29.86R
DENISON *      CLEAR     77  75  94 W5        29.83R
LE MARS *      CLEAR     77  72  83 N8G14     29.88S
SHELDON *      CLEAR     73  72  94 N8        29.87R
SIOUX CITY     CLEAR     80  70  71 N15       29.86R HX  83
SPENCER        PTCLDY    76  72  87 NW14      29.85R
STORM LAKE *   MOCLDY    77  75  94 NW12      29.86S
$$

IAZ055>058-069>071-079>083-090>094-241000-
   SOUTHWEST IOWA

CITY           SKY/WX    TMP DP  RH WIND       PRES   REMARKS
ATLANTIC *     CLEAR     73  73 100 CALM      29.84S
CLARINDA *       N/A     75  73  94 MISG      29.85S
COUNCIL BLFS *   N/A     77  75  94 S6        29.84S
CRESTON *      CLOUDY    77  75  94 S9        29.86F
HARLAN  *      CLEAR     73  73 100 CALM      29.87S
LAMONI         CLOUDY    78  75  90 S8        29.86S HX  81
RED OAK *      PTCLDY    75  73  94 CALM      29.84S
SHENANDOAH *   CLEAR     75  73  94 CALM      29.84R
$$

IAZ047>049-059>061-072>074-084-241000-
   CENTRAL IOWA

CITY           SKY/WX    TMP DP  RH WIND       PRES   REMARKS
AMES           CLEAR     74  74 100 CALM      29.83R
ANKENY *         N/A    N/A N/A N/A MISG        N/A
BOONE *          N/A     77  75  94 SW6       29.83S
CHARITON *       N/A    N/A N/A N/A MISG        N/A
DES MOINES     PTCLDY    80  75  84 S7        29.82S HX  85
GRINNELL*      MOCLDY    78  74  88 S6        29.86R HX  80
KNOXVILLE *    CLEAR     79  73  83 S8        29.83S HX  82
MARSHALLTOWN   MOCLDY    80  76  87 S10       29.82F HX  86
NEWTON *       MOCLDY    79  77  94 S7        29.84R HX  83
PELLA *        CLOUDY    78  74  87 S5        29.85S HX  81
PERRY *          N/A     74  74  97 S3        29.83S
$$

IAZ004>006-015-016-023>025-035-036-241000-
   NORTH CENTRAL IOWA

CITY           SKY/WX    TMP DP  RH WIND       PRES   REMARKS
ALGONA *       CLOUDY    77  77 100 SW6       29.83R
ESTHERVILLE    CLEAR     75  72  90 NW12      29.84R
FORT DODGE *   CLEAR     75  73  94 S5        29.83S
MASON CITY     CLEAR     78  74  87 SW10      29.83R HX  81
FOREST CITY *    N/A     75  75 100 SW5       29.82R
IOWA FALLS *     N/A     77  75  92 S6        29.84S
$$

IAZ007>011-017>019-026>030-037>042-050>054-066-241000-
   NORTHEAST IOWA

CITY           SKY/WX    TMP DP  RH WIND       PRES   REMARKS
CEDAR RAPIDS   CLOUDY    80  80 100 S9        29.84S HX  89
CHARLES CITY * MOCLDY    77  77 100 SW6       29.82S
CLINTON *      CLOUDY    76  75  97 S7        29.88S
DECORAH *      CLOUDY    75  75 100 SW6       29.82R
DUBUQUE        CLOUDY    74  73  97 S12       29.87S
MONTICELLO *   CLEAR     79  77  94 S7        29.85S HX  83
OELWEIN *      CLOUDY    77  75  94 S9        29.84S
WATERLOO       CLEAR     77  75  93 S8        29.80F
$$

IAZ064-065-067-068-078-241000-
   EAST CENTRAL IOWA

CITY           SKY/WX    TMP DP  RH WIND       PRES   REMARKS
DAVENPORT      CLOUDY    80  75  84 S10       29.88S HX  85
IOWA CITY      CLEAR     80  78  94 S10       29.86S HX  88
MT. PLEASANT * CLEAR     81  80  96 S7        29.88S HX  91
MUSCATINE *    PTCLDY    79  75  89 S7        29.86F HX  82
QUAD CITIES    CLOUDY    82  75  79 S12       29.86F HX  89
$$

IAZ062-063-075>077-085>089-095>099-241000-
   SOUTHEAST IOWA

CITY           SKY/WX    TMP DP  RH WIND       PRES   REMARKS
BURLINGTON     CLEAR     79  77  94 S7        29.88F HX  83
FAIRFIELD *    CLEAR     81  77  89 S6        29.86S HX  88
KEOKUK *       CLEAR     81  75  83 S8        29.88S HX  86
CENTERVILLE *    N/A     77  75  94 CALM      29.89S
OTTUMWA        CLEAR     78  75  90 S8        29.85F HX  81
WASHINGTON *   CLEAR     79  79 100 S8        29.88R HX  83
$$

ABBREVIATIONS USED IN REMARKS
   TC - TEMPERATURES IN CELSIUS
  WCI - WIND CHILL INDEX
   HX - HEAT INDEX
  VSB - VISIBILITY
$$





USA.gov is the U.S. government's official web portal to all federal, state and local government web resources and services.